P/2001 YX127 ( LINEAR ) 2011

Japanese version
Home page
Total 6,336 html files since Dec. 4, 1995
Updated on July 27, 2008

---------------------------------------------------------------------

* Profile

* Orbital Elements

The following orbital elements are taken from MPC 62881:

Epoch 2011 Aug. 27.0 TT = JDT 2455800.5
T 2011 Aug. 24.2078 TT                                  MPC
q   3.430477             (2000.0)            P               Q
n   0.1157628      Peri.  114.7923      -0.8231942      -0.5632950
a   4.169558       Node    31.0665      +0.4583943      -0.7332510
e   0.177257       Incl.    7.9154      +0.3350015      -0.3808435
P   8.51
From 105 observations 2001 Dec. 9-2004 May 29, mean residual 0".7.

* Magnitudes Graph

        m1 = 11.5 + 5 log d + 10.0 log r

---------------------------------------------------------------------

The orbital elements are published at the MPC Ephemerides and Orbital Elements.
The magnitudes graphs are made with Comet for Windows.

---------------------------------------------------------------------

Copyright(C) 1995-2008 Seiichi Yoshida (comet@aerith.net). All rights reserved.